Simultaneous Nadir Overpasses (SNOs) Predictions

Prediction of SNOs between AQUA and METOP-B Satellite Orbit:

Table of predicted SNOs for the next 14.0 days since TLE Epoch: 5/25/2018
Index Date (AQUA) Time (AQUA) Lat,Lon (AQUA) SZA (AQUA ) Date (METOP-B) Time (METOP-B) Lat,Lon (METOP-B) SZA (METOP-B ) Distance(km) Time Diff (sec)
1 05/27/2018 23:02:31 73.91,-171.40 52.48 05/27/2018 23:01:50 73.89,-171.47 52.48 2.52 41
2 05/27/2018 23:51:57 -74.00, -3.98 127.43 05/27/2018 23:52:29 -74.00, -3.89 127.43 2.83 32
3 05/30/2018 18:36:45 73.91,-104.98 52.06 05/30/2018 18:36:09 73.91,-105.02 52.06 1.23 36
4 05/30/2018 19:26:12 -74.00, 62.46 127.86 05/30/2018 19:26:50 -73.97, 62.45 127.89 3.60 38
5 06/02/2018 14:11:00 73.92, -38.57 51.69 06/02/2018 14:10:29 73.92, -38.58 51.70 0.41 31
6 06/02/2018 15:00:27 -74.01, 128.89 128.23 06/02/2018 15:01:10 -73.99, 128.89 128.26 2.40 43
7 06/05/2018 09:45:15 73.94, 27.83 51.38 06/05/2018 09:44:49 73.93, 27.85 51.38 0.67 26
8 06/05/2018 10:34:42 -74.01,-164.69 128.55 06/05/2018 10:35:30 -73.99,-164.68 128.58 2.22 48
9 06/08/2018 04:29:49 -73.30, -72.00 129.58 06/08/2018 04:28:43 -73.23, -74.71 129.55 87.28 66
10 06/08/2018 05:19:29 73.96, 94.23 51.12 06/08/2018 05:19:08 73.94, 94.27 51.10 2.45 21
11 06/08/2018 06:08:56 -74.02, -98.28 128.81 06/08/2018 06:09:49 -74.00, -98.26 128.85 3.03 53




NCC Satellite Simultaneous Nadir Overpasses (SNOs) Prediction Service
